Showing default

HADES-R, 62690

Orbit data source: Space-Track

HADES-R, 62690 is a Spanish payload satellite in SSO that was launched on Tue, 14 Jan 2025 UTC via an FALCON 9 launch vehicle from the Air Force Western Test Range (AFWTR). Payload-class satellites include a variety of spacecraft equipped with specific instruments for various scientific and technological missions. These include communications satellites like Starlink; space stations such as the ISS; scientific satellites like the Hubble; Earth observation satellites from companies like Planet Labs, Umbra, and HawkEye 360; GPS; miniature CubeSats for education and research; and military/defense satellites.

Loading next visibility...
Identifier
62690, 2025-009CK
Orbit
SSO
Country
Flag of ESES / SPN
Related business
Manufacturer
AMEA/HYDRA
Mission
Operational Amateur Communications
Bus & Motor
POCKETQUBE 1.5P, Unknown motor
Mass
0.375 kg wet, 0.25 kg dry
Launch date (UTC)
2025-01-14 (9 months ago)
Launch vehicle
FALCON 9
Launch site
Air Force Western Test Range (AFWTR)
Object type
Payload
Rocket body
Debris
Shape & HBR
Box, 0.1 m
Radar Cross Section
0.005 m², Small (<0.1 m²)

Expand to show TLE details & history
Last TLE update: 20 hours ago

TLE from 20 hours ago
0 HADES-R
1 62690U 25009CK  25297.21150138  .00114466  00000-0  24572-2 0  9999
2 62690  97.3967  18.5116 0002387 294.9664  65.1336 15.44272947 43105
Epoch: 2025-10-24T05:04Z
TLE epoch observation values (Epoch: 2025-10-24T05:04:33.719Z)
Latitude
-0.00002°
Longitude
-90.48855°
Altitude
435.955 km
Speed
7.651 km/s
True Right ascension
01h 14m 02s
True Declination
0° 00' 00"
Sunlit
Object was in full shadow at epoch
Visualization orbit readout
Latitude
Unknown
Longitude
Unknown
Altitude
Unknown
Speed
Unknown
Apparent Right ascension
Unknown
Apparent Declination
Unknown
Sunlit
N/A
Visualization observer readout
Local Sidereal Time
20:34:39
Azimuth
Unknown
Elevation
Unknown
Doppler factor
Unknown
Orbital elements
Apogee altitude
432.074 km
Perigee altitude
428.823 km
Semi-major axis
6,808.585 km
Eccentricity
0.00024
Inclination
97.3967°
RAAN
18.5116°
Arg. of periapsis
294.9664°
True anomaly
65.15842°
Mean anomaly
65.1336°
Eccentric anomaly
65.14601°
Mean motion
3.86329 °/min
Orbital period
93.18 mins
BSTAR
0.0024572
Loading maneuver chart data...
Computing Atmospheric mass density...
Loading historical data...
Loading historical data...
Loading historical data...
Loading historical data...
Loading historical data...
Loading historical data...
Loading historical data...

Documentation

Showing up to 5 results
|